Weather History for Fort Smith, AR

Change the Weather History Date:

Sunday, June 23, 2013

  Actual Average Record
Temperature  
Mean Temperature 84 °F 80 °F  
Max Temperature 94 °F 90 °F 102 °F (1988)
Min Temperature 74 °F 69 °F 55 °F (1902)
Cooling Degree Days 19 15  
Month to date cooling degree days 317 278  
Year to date cooling degree days 591 522  
Since 1 June cooling degree days 317 278  
Growing Degree Days 33 (Base 50)    
Moisture  
Dew Point 70 °F    
Average Humidity 67    
Maximum Humidity 93    
Minimum Humidity 41    
Precipitation  
Precipitation 0.00 in 0.14 in 1.58 in (1948)
Month to date precipitation 6.10 3.37  
Year to date precipitation 27.08 22.56  
Sea Level Pressure  
Sea Level Pressure 29.95 in    
Wind  
Wind Speed 6 mph (SE)    
Max Wind Speed 16 mph    
Max Gust Speed 20 mph    
Visibility 10 miles    
Events      
T = Trace of Precipitation, MM = Missing Value Source: NWS Daily Summary

Daily Weather History Graph

Daily Weather History Graph

Search for Another Location

Airport:

Trip Planner

Search our weather history database for the weather conditions in past years. The results will help you decide how hot, cold, wet, or windy it might be!

Date:

Astronomy

Jun. 23, 2013 Rise Set
Actual Time 6:03 AM CDT 8:36 PM CDT
Civil Twilight 5:33 AM CDT 9:05 PM CDT
Nautical Twilight 4:56 AM CDT 9:42 PM CDT
Astronomical Twilight 4:15 AM CDT 10:23 PM CDT
Moon 8:52 PM CDT (6/23) 6:19 AM CDT (6/23)
Length of Visible Light 15h 32m
Length of Day
14h 32m
Full, 100% of the Moon is Illuminated
Jun 23
Full
Jun 29
Last Quarter
Jul 8
New
Jul 15
First Quarter
Jul 22
Full

Hourly Weather History & Observations

Time (CDT) Temp. Heat Index Dew Point Humidity Pressure Visibility Wind Dir Wind Speed Gust Speed Precip Events Conditions
12:53 AM 77.0 °F - 71.1 °F 82% 29.96 in 10.0 mi ENE 6.9 mph - N/A   Clear
1:53 AM 77.0 °F - 72.0 °F 84% 29.95 in 10.0 mi East 5.8 mph - N/A   Clear
2:53 AM 75.9 °F - 72.0 °F 87% 29.95 in 10.0 mi ENE 5.8 mph - N/A   Clear
3:53 AM 75.9 °F - 72.0 °F 87% 29.96 in 10.0 mi ENE 6.9 mph - N/A   Clear
4:53 AM 75.0 °F - 71.1 °F 87% 29.95 in 9.0 mi ENE 6.9 mph - N/A   Clear
5:53 AM 73.9 °F - 71.1 °F 91% 29.96 in 8.0 mi ENE 5.8 mph - N/A   Clear
6:53 AM 75.0 °F - 71.1 °F 87% 29.98 in 7.0 mi NE 4.6 mph - N/A   Clear
7:53 AM 78.1 °F - 72.0 °F 81% 29.99 in 8.0 mi ENE 6.9 mph - N/A   Clear
8:53 AM 81.0 °F 85.8 °F 73.0 °F 77% 29.99 in 9.0 mi ESE 3.5 mph - N/A   Clear
9:53 AM 84.9 °F 91.4 °F 73.0 °F 67% 29.99 in 10.0 mi Variable 5.8 mph - N/A   Clear
10:53 AM 88.0 °F 92.1 °F 69.1 °F 53% 29.98 in 10.0 mi SSW 12.7 mph 18.4 mph N/A   Clear
11:53 AM 90.0 °F 96.4 °F 71.1 °F 54% 29.97 in 10.0 mi South 6.9 mph - N/A   Partly Cloudy
12:53 PM 91.0 °F 95.6 °F 69.1 °F 48% 29.96 in 10.0 mi South 8.1 mph - N/A   Clear
1:53 PM 91.9 °F 95.9 °F 68.0 °F 45% 29.96 in 10.0 mi SSE 10.4 mph 16.1 mph N/A   Partly Cloudy
2:53 PM 93.0 °F 97.4 °F 68.0 °F 44% 29.95 in 10.0 mi South 9.2 mph - N/A   Partly Cloudy
3:53 PM 93.0 °F 97.4 °F 68.0 °F 44% 29.93 in 10.0 mi SSE 8.1 mph - N/A   Clear
4:53 PM 93.0 °F 96.4 °F 66.9 °F 42% 29.92 in 10.0 mi South 6.9 mph - N/A   Clear
5:53 PM 91.9 °F 95.4 °F 66.9 °F 44% 29.91 in 10.0 mi South 9.2 mph - N/A   Clear
6:53 PM 91.0 °F 95.2 °F 68.0 °F 47% 29.90 in 10.0 mi South 8.1 mph 17.3 mph N/A   Clear
7:53 PM 88.0 °F 92.1 °F 69.1 °F 53% 29.91 in 10.0 mi SSE 8.1 mph - N/A   Clear
8:53 PM 84.9 °F 89.4 °F 70.0 °F 61% 29.93 in 10.0 mi Calm Calm - N/A   Clear
9:53 PM 82.9 °F 86.5 °F 69.1 °F 63% 29.94 in 10.0 mi Calm Calm - N/A   Clear
10:53 PM 81.0 °F 84.1 °F 69.1 °F 67% 29.95 in 10.0 mi Calm Calm - N/A   Clear
11:53 PM 78.1 °F - 70.0 °F 76% 29.97 in 10.0 mi ENE 4.6 mph - N/A   Clear